Location: Geelbroek
(52.9503°N, 6.5712°E)
Time: 15:49:19
(UTC+00:00)

Cosmos 1092 Rocket - Pass Details

Date: 15 May 2026
Orbit: 953 x 994 km, 83.0° (Epoch: 10 June)

Event Time Altitude Azimuth Distance (km) Brightness Sun altitude
Rises 21:32:18 0° 350° (N) 3,649 8.5 -13.6°
Reaches altitude 10° 21:34:49 10° 352° (N) 2,702 7.5 -13.8°
Maximum altitude 21:41:00 72° 77° (ENE) 1,016 4.0 -14.2°
Enters shadow 21:45:21 21° 159° (SSE) 2,040 5.0 -14.5°
